Date String (YYYY-MM-DD hh:mm:ss) UTC,Instrument flags,absolute air pressure of the measurement (hPa),sample flow rate (lpm),inlet stack bypass flow (lpm),air temperature of the measurement (°C),ambient temperature measured by the external sensor (°C),aerosol sample conditioner tube jacket temperature (°C),OPC LED temperature (°C),internal box temperature (°C),relative humidity of the measurement (%),span deviation,mass concentration of particles derived from Lorenz-Mie calculation of OPC scattering (μg/m³),mass concentration of particles derived from Lorenz-Mie calculation of OPC scattering (μg/m³),mass concentration of particles derived from Lorenz-Mie calculation of OPC scattering (μg/m³)
DateTimeUTC,F1_M11,P_M11,Q1_M11,Q2_M11,T1_M11,T2_M11,T3_M11,T4_M11,T5_M11,U1_M11,ZSPAN_M11,X2_M11,X0_M11,X1_M11
2024-05-20 04:00:00,SystemResetWarning,0825.2,5.00,000.00,024.4,023.7,000.0,032.5,026.2,023.4,0000.0,0002.69,0008.29,0001.75
2024-05-20 04:01:00,SystemResetWarning,0825.2,5.01,000.00,024.4,023.8,000.0,032.5,026.3,023.3,0000.0,0002.69,0008.39,0001.73
2024-05-20 04:02:00,SystemResetWarning,0825.2,5.00,000.00,024.5,023.9,000.0,032.5,026.4,023.2,0000.0,0002.69,0008.25,0001.71
2024-05-20 04:03:00,SystemResetWarning,0825.2,5.01,000.00,024.6,024.1,000.0,032.5,026.5,023.1,0000.0,0002.74,0008.17,0001.72
2024-05-20 04:04:00,SystemResetWarning,0825.3,5.01,000.00,024.6,024.2,000.0,032.6,026.5,023.1,0000.0,0002.77,0007.94,0001.73
2024-05-20 04:05:00,SystemResetWarning,0825.3,4.99,000.00,024.7,024.2,000.0,032.6,026.6,023.1,0000.0,0002.81,0007.39,0001.74
2024-05-20 04:06:00,SystemResetWarning,0825.3,5.00,000.00,024.7,024.3,000.0,032.6,026.6,023.0,0000.0,0002.78,0007.78,0001.73
2024-05-20 04:07:00,SystemResetWarning,0825.3,4.99,000.00,024.7,023.2,000.0,032.7,026.0,023.0,0000.0,0002.83,0008.08,0001.71
2024-05-20 04:08:00,SystemResetWarning,0825.3,5.01,000.00,024.3,021.5,000.0,032.8,025.1,023.5,0000.0,0002.87,0008.35,0001.70
2024-05-20 04:09:00,SystemResetWarning,0825.2,5.01,000.00,024.1,021.6,000.0,032.7,025.1,023.8,0000.0,0002.91,0008.56,0001.71
2024-05-20 04:10:00,SystemResetWarning,0825.3,5.00,000.00,024.0,021.9,000.0,032.6,025.2,023.9,0000.0,0002.92,0008.71,0001.71
2024-05-20 04:11:00,SystemResetWarning,0825.3,5.00,000.00,024.0,022.3,000.0,032.5,025.5,023.9,0000.0,0002.92,0008.85,0001.70
2024-05-20 04:12:00,SystemResetWarning,0825.3,5.00,000.00,024.1,022.6,000.0,032.5,025.6,023.8,0000.0,0002.87,0009.08,0001.70
2024-05-20 04:13:00,SystemResetWarning,0825.3,5.00,000.00,024.1,022.9,000.0,032.4,025.8,023.6,0000.0,0002.87,0010.14,0001.69
2024-05-20 04:14:00,SystemResetWarning,0825.4,5.01,000.00,024.2,023.1,000.0,032.4,026.0,023.5,0000.0,0002.81,0010.30,0001.69
2024-05-20 04:15:00,SystemResetWarning,0825.4,5.00,000.00,024.3,023.4,000.0,032.4,026.1,023.4,0000.0,0002.76,0010.39,0001.68
2024-05-20 04:16:00,SystemResetWarning,0825.4,5.00,000.00,024.3,023.5,000.0,032.4,026.2,023.4,0000.0,0002.72,0010.55,0001.67
2024-05-20 04:17:00,SystemResetWarning,0825.4,5.01,000.00,024.4,023.7,000.0,032.5,026.3,023.2,0000.0,0002.71,0010.51,0001.68
2024-05-20 04:18:00,SystemResetWarning,0825.4,4.98,000.00,024.5,023.9,000.0,032.5,026.3,023.0,0000.0,0002.63,0011.29,0001.69
2024-05-20 04:19:00,SystemResetWarning,0825.5,4.99,000.00,024.5,024.0,000.0,032.5,026.4,022.9,0000.0,0002.57,0011.25,0001.70
2024-05-20 04:20:00,SystemResetWarning,0825.5,5.00,000.00,024.6,024.1,000.0,032.5,026.5,022.8,0000.0,0002.52,0011.00,0001.70
2024-05-20 04:21:00,SystemResetWarning,0825.6,5.01,000.00,024.6,024.2,000.0,032.6,026.6,022.8,0000.0,0002.49,0011.90,0001.70
2024-05-20 04:22:00,SystemResetWarning,0825.6,5.01,000.00,024.7,024.3,000.0,032.6,026.6,022.7,0000.0,0002.46,0011.15,0001.70
2024-05-20 04:23:00,SystemResetWarning,0825.6,4.98,000.00,024.7,024.3,000.0,032.7,026.7,022.6,0000.0,0002.48,0010.68,0001.71
2024-05-20 04:24:00,SystemResetWarning,0825.6,4.99,000.00,024.7,023.4,000.0,032.7,026.1,022.7,0000.0,0002.51,0009.66,0001.72
2024-05-20 04:25:00,SystemResetWarning,0825.5,5.01,000.00,024.3,021.7,000.0,032.8,025.2,023.1,0000.0,0002.48,0009.35,0001.72
2024-05-20 04:26:00,SystemResetWarning,0825.5,5.01,000.00,024.1,021.6,000.0,032.8,025.1,023.5,0000.0,0002.53,0009.34,0001.73
2024-05-20 04:27:00,SystemResetWarning,0825.6,4.99,000.00,024.0,021.9,000.0,032.7,025.2,023.6,0000.0,0002.59,0009.26,0001.73
2024-05-20 04:28:00,SystemResetWarning,0825.6,5.00,000.00,024.0,022.3,000.0,032.6,025.4,023.5,0000.0,0002.57,0009.29,0001.72
2024-05-20 04:29:00,SystemResetWarning,0825.6,5.00,000.00,024.1,022.6,000.0,032.5,025.6,023.5,0000.0,0002.62,0008.56,0001.72
2024-05-20 04:30:00,SystemResetWarning,0825.6,5.00,000.00,024.1,022.9,000.0,032.5,025.8,023.4,0000.0,0002.67,0008.52,0001.72
2024-05-20 04:31:00,SystemResetWarning,0825.6,4.99,000.00,024.2,023.2,000.0,032.5,026.0,023.3,0000.0,0002.73,0009.07,0001.73
2024-05-20 04:32:00,SystemResetWarning,0825.6,5.00,000.00,024.3,023.4,000.0,032.5,026.1,023.1,0000.0,0002.76,0008.75,0001.73
2024-05-20 04:33:00,SystemResetWarning,0825.7,5.00,000.00,024.3,023.6,000.0,032.5,026.2,023.0,0000.0,0002.81,0008.98,0001.73
2024-05-20 04:34:00,SystemResetWarning,0825.7,5.00,000.00,024.4,023.7,000.0,032.5,026.3,022.9,0000.0,0002.85,0009.18,0001.74
2024-05-20 04:35:00,SystemResetWarning,0825.7,5.00,000.00,024.4,023.8,000.0,032.5,026.3,022.8,0000.0,0002.82,0009.28,0001.73
2024-05-20 04:36:00,SystemResetWarning,0825.7,5.01,000.00,024.5,024.0,000.0,032.5,026.4,022.7,0000.0,0002.85,0009.70,0001.73
2024-05-20 04:37:00,SystemResetWarning,0825.7,5.00,000.00,024.6,024.1,000.0,032.6,026.5,022.6,0000.0,0002.77,0009.62,0001.71
2024-05-20 04:38:00,SystemResetWarning,0825.7,5.00,000.00,024.6,024.2,000.0,032.6,026.5,022.4,0000.0,0002.67,0009.59,0001.70
2024-05-20 04:39:00,SystemResetWarning,0825.8,4.99,000.00,024.7,024.2,000.0,032.6,026.6,022.4,0000.0,0002.68,0009.97,0001.71
2024-05-20 04:40:00,SystemResetWarning,0825.7,4.99,000.00,024.7,024.3,000.0,032.7,026.7,022.3,0000.0,0002.66,0009.38,0001.72
2024-05-20 04:41:00,SystemResetWarning,0825.7,5.00,000.00,024.8,024.4,000.0,032.7,026.7,022.1,0000.0,0002.63,0009.16,0001.72
2024-05-20 04:42:00,SystemResetWarning,0825.7,5.00,000.00,024.8,023.7,000.0,032.8,026.3,022.0,0000.0,0002.55,0008.48,0001.72
2024-05-20 04:43:00,SystemResetWarning,0825.6,5.01,000.00,024.4,021.8,000.0,032.8,025.2,022.5,0000.0,0002.51,0008.17,0001.74
2024-05-20 04:44:00,SystemResetWarning,0825.6,5.01,000.00,024.1,021.6,000.0,032.8,025.0,022.9,0000.0,0002.51,0007.45,0001.76
2024-05-20 04:45:00,SystemResetWarning,0825.6,5.00,000.00,024.1,021.9,000.0,032.7,025.2,023.1,0000.0,0002.51,0007.72,0001.76
2024-05-20 04:46:00,SystemResetWarning,0825.6,4.99,000.00,024.1,022.2,000.0,032.6,025.4,022.9,0000.0,0002.51,0007.45,0001.77
2024-05-20 04:47:00,SystemResetWarning,0825.6,5.01,000.00,024.1,022.6,000.0,032.5,025.6,023.0,0000.0,0002.51,0006.86,0001.81
2024-05-20 04:48:00,SystemResetWarning,0825.6,5.02,000.00,024.1,022.9,000.0,032.5,025.8,022.8,0000.0,0002.56,0006.77,0001.86
2024-05-20 04:49:00,SystemResetWarning,0825.6,4.98,000.00,024.2,023.1,000.0,032.5,025.9,022.7,0000.0,0002.64,0006.81,0001.89
2024-05-20 04:50:00,SystemResetWarning,0825.6,4.99,000.00,024.3,023.3,000.0,032.5,026.0,022.6,0000.0,0002.68,0005.86,0001.91
2024-05-20 04:51:00,SystemResetWarning,0825.6,5.01,000.00,024.3,023.5,000.0,032.5,026.2,022.6,0000.0,0002.71,0006.84,0001.94
2024-05-20 04:52:00,SystemResetWarning,0825.6,5.01,000.00,024.4,023.7,000.0,032.5,026.3,022.4,0000.0,0002.78,0007.07,0001.96
2024-05-20 04:53:00,SystemResetWarning,0825.6,5.00,000.00,024.4,023.8,000.0,032.5,026.3,022.4,0000.0,0002.84,0007.43,0001.99
2024-05-20 04:54:00,SystemResetWarning,0825.6,4.99,000.00,024.5,023.9,000.0,032.5,026.4,022.5,0000.0,0002.93,0007.47,0002.01
2024-05-20 04:55:00,SystemResetWarning,0825.6,5.00,000.00,024.6,024.0,000.0,032.6,026.5,022.6,0000.0,0002.98,0007.44,0002.03
2024-05-20 04:56:00,SystemResetWarning,0825.6,4.99,000.00,024.6,024.1,000.0,032.6,026.5,022.5,0000.0,0003.00,0006.86,0002.04
2024-05-20 04:57:00,SystemResetWarning,0825.6,5.01,000.00,024.7,024.2,000.0,032.6,026.6,022.4,0000.0,0003.09,0007.66,0002.04
2024-05-20 04:58:00,SystemResetWarning,0825.6,5.01,000.00,024.7,024.3,000.0,032.7,026.6,022.4,0000.0,0003.10,0008.73,0002.01
2024-05-20 04:59:00,SystemResetWarning,0825.6,5.00,000.00,024.8,024.3,000.0,032.7,026.7,022.4,0000.0,0003.09,0008.72,0001.98
